San Antonio, TX

8:33 PM CDT on September 29, 2016 (GMT -0500)
San Antonio International

Weather History for KSAT - October, 2014

Change the Weather History Date:

Thursday, October 16, 2014

  Actual Average Record
Temperature  
Mean Temperature 72 °F 71 °F  
Max Temperature 89 °F 82 °F 97 °F (1933)
Min Temperature 54 °F 60 °F 40 °F (1974)
Degree Days  
Heating Degree Days 0 1  
Month to date heating degree days 0 5  
Since 1 July heating degree days 0 7  
Cooling Degree Days 7 7  
Month to date cooling degree days 207 137  
Year to date cooling degree days 3323 2971  
Growing Degree Days 22 (Base 50)    
Moisture  
Dew Point 45 °F    
Average Humidity 46    
Maximum Humidity 72    
Minimum Humidity 19    
Precipitation  
Precipitation 0.00 in 0.15 in 2.90 in (1960)
Month to date precipitation 0.62 2.14  
Year to date precipitation 18.46 26.11  
Snow  
Snow 0.00 in - - ()
Month to date snowfall 0.0  
Since 1 July snowfall 0.0  
Since 1 September snowfall 0.0  
Snow Depth 0.00 in    
Sea Level Pressure  
Sea Level Pressure 29.93 in    
Wind  
Wind Speed 9 mph (SSW)    
Max Wind Speed 20 mph    
Max Gust Speed 23 mph    
Visibility 10 miles    
Events      
T = Trace of Precipitation, MM = Missing Value Source: NWS Daily Summary

Daily Weather History Graph

Daily Weather History Graph

Search for Another Location

Airport or City:

Trip Planner

Search our weather history database for the weather conditions in past years. The results will help you decide how hot, cold, wet, or windy it might be!

Date:

Astronomy

Oct. 16, 2014 Rise Set
Actual Time 7:36 AM CDT 7:02 PM CDT
Civil Twilight 7:12 AM CDT 7:26 PM CDT
Nautical Twilight 6:44 AM CDT 7:54 PM CDT
Astronomical Twilight 6:16 AM CDT 8:21 PM CDT
Moon 1:15 AM CDT (10/16) 2:48 PM CDT (10/16)
Length of Visible Light 12h 14m
Length of Day
11h 26m
Last Quarter, 41% of the Moon is Illuminated
Oct 16
Last Quarter
Oct 23
New
Oct 30
First Quarter
Nov 6
Full
Nov 14
Last Quarter

Hourly Weather History & Observations

Time (CDT) Temp. Dew Point Humidity Pressure Visibility Wind Dir Wind Speed Gust Speed Precip Events Conditions
12:51 AM 66.9 °F 42.1 °F 40% 29.98 in 10.0 mi SSW 6.9 mph - N/A   Clear
1:51 AM 60.1 °F 44.1 °F 55% 29.98 in 10.0 mi WNW 3.5 mph - N/A   Clear
2:51 AM 57.0 °F 46.0 °F 67% 29.97 in 10.0 mi NNW 3.5 mph - N/A   Clear
3:51 AM 57.0 °F 45.0 °F 64% 29.96 in 10.0 mi Variable 3.5 mph - N/A   Clear
4:51 AM 55.9 °F 44.1 °F 64% 29.96 in 10.0 mi NW 5.8 mph - N/A   Clear
5:51 AM 55.0 °F 45.0 °F 69% 29.96 in 10.0 mi NNW 4.6 mph - N/A   Clear
6:51 AM 55.9 °F 46.0 °F 69% 29.98 in 10.0 mi North 3.5 mph - N/A   Clear
7:51 AM 55.9 °F 46.0 °F 69% 29.98 in 10.0 mi NNW 4.6 mph - N/A   Clear
8:51 AM 64.0 °F 48.9 °F 58% 29.99 in 10.0 mi NNW 3.5 mph - N/A   Clear
9:51 AM 71.1 °F 50.0 °F 47% 29.99 in 10.0 mi SW 15.0 mph - N/A   Clear
10:51 AM 75.0 °F 50.0 °F 41% 29.99 in 10.0 mi SW 11.5 mph - N/A   Clear
11:51 AM 79.0 °F 48.0 °F 34% 29.99 in 10.0 mi SW 13.8 mph - N/A   Clear
12:51 PM 82.9 °F 46.0 °F 27% 29.96 in 10.0 mi South 10.4 mph - N/A   Clear
1:51 PM 86.0 °F 43.0 °F 22% 29.93 in 10.0 mi SSW 11.5 mph - N/A   Clear
2:51 PM 87.1 °F 42.1 °F 21% 29.89 in 10.0 mi SSW 11.5 mph 20.7 mph N/A   Clear
3:51 PM 89.1 °F 41.0 °F 19% 29.87 in 10.0 mi South 11.5 mph 20.7 mph N/A   Clear
4:51 PM 88.0 °F 41.0 °F 19% 29.86 in 10.0 mi SSE 8.1 mph - N/A   Clear
5:51 PM 87.1 °F 44.1 °F 22% 29.85 in 10.0 mi SSE 11.5 mph - N/A   Clear
6:51 PM 82.9 °F 43.0 °F 24% 29.85 in 10.0 mi SSE 10.4 mph - N/A   Clear
7:51 PM 78.1 °F 43.0 °F 29% 29.87 in 10.0 mi SSE 9.2 mph - N/A   Clear
8:51 PM 77.0 °F 44.1 °F 31% 29.88 in 10.0 mi SSE 10.4 mph - N/A   Clear
9:51 PM 75.0 °F 46.0 °F 36% 29.88 in 10.0 mi South 10.4 mph - N/A   Clear
10:51 PM 73.0 °F 52.0 °F 48% 29.89 in 10.0 mi SSE 11.5 mph - N/A   Clear
11:51 PM 69.1 °F 55.0 °F 61% 29.88 in 10.0 mi South 8.1 mph - N/A   Clear